Weather History for Copper Harbor, MI

Change the Weather History Date:

Thursday, October 10, 2013

  Actual Average Record
Temperature  
Mean Temperature 60 °F -  
Max Temperature 66 °F 51 °F 73 °F (2003)
Min Temperature 55 °F 38 °F 30 °F (1996)
Degree Days  
Heating Degree Days 4    
Growing Degree Days 10 (Base 50)    
Moisture  
Dew Point 47 °F    
Average Humidity 62    
Maximum Humidity 83    
Minimum Humidity 43    
Precipitation  
Precipitation 0.00 in - - ()
Sea Level Pressure  
Sea Level Pressure 30.06 in    
Wind  
Wind Speed 6 mph (SW)    
Max Wind Speed 12 mph    
Max Gust Speed 18 mph    
Averages and records for this station are not official NWS values.
T = Trace of Precipitation, MM = Missing Value Source: NWS Daily Summary

Daily Weather History Graph

Daily Weather History Graph

Search for Another Location

Airport:

Trip Planner

Search our weather history database for the weather conditions in past years. The results will help you decide how hot, cold, wet, or windy it might be!

Date:

Astronomy

Oct. 10, 2013 Rise Set
Actual Time 8:03 AM EDT 7:12 PM EDT
Civil Twilight 7:32 AM EDT 7:43 PM EDT
Nautical Twilight 6:57 AM EDT 8:18 PM EDT
Astronomical Twilight 6:21 AM EDT 8:54 PM EDT
Moon 2:10 PM EDT (10/10) 11:35 PM EDT (10/10)
Length of Visible Light 12h 10m
Length of Day
11h 09m
Waxing Crescent, 35% of the Moon is Illuminated
Oct 10
Waxing Crescent
Oct 11
First Quarter
Oct 18
Full
Oct 26
Last Quarter
Nov 3
New

Hourly Weather History & Observations

Time (EDT) Temp. Dew Point Humidity Pressure Visibility Wind Dir Wind Speed Gust Speed Precip Events Conditions
12:51 AM 63.0 °F 48.0 °F 58% 30.06 in - WSW 6.9 mph - N/A   Unknown
1:51 AM 61.0 °F 48.0 °F 62% 30.06 in - WSW 8.1 mph - N/A   Unknown
2:51 AM 60.1 °F 48.0 °F 64% 30.06 in - WSW 8.1 mph - N/A   Unknown
3:51 AM 60.1 °F 46.9 °F 62% 30.06 in - Calm Calm - N/A   Unknown
4:51 AM 57.0 °F 48.0 °F 72% 30.07 in - Variable 4.6 mph - N/A   Unknown
5:51 AM 57.0 °F 48.0 °F 72% 30.08 in - WSW 6.9 mph - N/A   Unknown
6:51 AM 57.0 °F 48.0 °F 72% 30.09 in - Variable 3.5 mph - N/A   Unknown
7:51 AM 55.0 °F 46.9 °F 74% 30.09 in - Calm Calm - N/A   Unknown
8:51 AM 55.0 °F 46.9 °F 74% 30.11 in - WSW 4.6 mph - N/A   Unknown
9:51 AM 57.9 °F 48.0 °F 70% 30.09 in - WSW 5.8 mph - N/A   Unknown
10:51 AM 61.0 °F 48.0 °F 62% 30.09 in - SW 6.9 mph - N/A   Unknown
11:51 AM 64.0 °F 48.0 °F 56% 30.08 in - WSW 8.1 mph - N/A   Unknown
12:51 PM 64.9 °F 46.9 °F 52% 30.08 in - SW 5.8 mph - N/A   Unknown
1:51 PM 64.9 °F 46.0 °F 50% 30.06 in - Variable 5.8 mph - N/A   Unknown
2:51 PM 66.0 °F 44.1 °F 45% 30.05 in - SW 10.4 mph - N/A   Unknown
3:51 PM 66.0 °F 43.0 °F 43% 30.04 in - Calm Calm - N/A   Unknown
4:51 PM 64.9 °F 46.9 °F 52% 30.04 in - Variable 3.5 mph - N/A   Unknown
5:51 PM 64.9 °F 46.9 °F 52% 30.03 in - SSW 8.1 mph - N/A   Unknown
6:51 PM 64.0 °F 46.0 °F 52% 30.03 in - Variable 4.6 mph - N/A   Unknown
7:51 PM 63.0 °F 46.9 °F 56% 30.03 in - SSW 11.5 mph 17.3 mph N/A   Unknown
8:51 PM 59.0 °F 48.9 °F 69% 30.04 in - WSW 8.1 mph - N/A   Unknown
9:51 PM 59.0 °F 48.9 °F 69% 30.04 in - SW 9.2 mph 16.1 mph N/A   Unknown
10:51 PM 57.9 °F 50.0 °F 75% 30.04 in - WSW 10.4 mph 16.1 mph N/A   Unknown
11:51 PM 57.0 °F 52.0 °F 83% 30.03 in - WSW 11.5 mph 18.4 mph N/A   Unknown